When you browse on this site, cookies collect data to enhance your experience and personalize the content and advertising you see.
Visit our Privacy Policy to learn more. By continuing to use the site, you agree to this use of cookies and data.
  • în România
  • Lista ţărilor
  • Pe 7 zile
  • Temperatura apei
  • Hartă satelitară
  • Meteo pe hartă
  • Widget-uri
  • user-avatar
    Intrare

    Meteo pe oră la Mingachevir

    Astăzi, 19 Iunie, Miercuri

    Timp Temperatura Precipitaţii Vânt Presiune Umiditate
    00:00 +26°C° 0.5 mm 3 m/s 749 mmHg 62%
    01:00 +25°C° 0.2 mm 3 m/s 749 mmHg 64%
    02:00 +25°C° 0.2 mm 2 m/s 749 mmHg 65%
    03:00 +24°C° 0 mm 2 m/s 749 mmHg 66%
    04:00 +25°C° 0 mm 2 m/s 749 mmHg 64%
    05:00 +25°C° 0 mm 2 m/s 749 mmHg 63%
    06:00 +26°C° 0 mm 2 m/s 749 mmHg 62%
    07:00 +27°C° 0 mm 2 m/s 749 mmHg 57%
    08:00 +29°C° 0 mm 2 m/s 749 mmHg 51%
    09:00 +30°C° 0 mm 3 m/s 749 mmHg 45%
    10:00 +33°C° 0 mm 3 m/s 749 mmHg 40%
    11:00 +34°C° 0 mm 3 m/s 749 mmHg 34%
    12:00 +35°C° 0 mm 3 m/s 749 mmHg 29%
    13:00 +36°C° 0 mm 3 m/s 748 mmHg 28%
    14:00 +36°C° 0 mm 4 m/s 748 mmHg 27%
    15:00 +37°C° 0 mm 4 m/s 748 mmHg 27%
    16:00 +36°C° 0 mm 4 m/s 748 mmHg 28%
    17:00 +36°C° 0 mm 4 m/s 748 mmHg 30%
    18:00 +35°C° 0 mm 3 m/s 748 mmHg 31%
    19:00 +34°C° 0 mm 3 m/s 748 mmHg 33%
    20:00 +31°C° 0 mm 3 m/s 748 mmHg 35%
    21:00 +30°C° 0 mm 3 m/s 749 mmHg 37%
    22:00 +29°C° 0 mm 3 m/s 749 mmHg 39%
    23:00 +28°C° 0 mm 3 m/s 749 mmHg 40%

    Mâine, 20 Iunie, Joi

    Timp Temperatura Precipitaţii Vânt Presiune Umiditate
    00:00 +28°C° 0 mm 3 m/s 749 mmHg 41%
    01:00 +27°C° 0 mm 3 m/s 749 mmHg 43%
    02:00 +26°C° 0 mm 2 m/s 749 mmHg 44%
    03:00 +26°C° 0 mm 2 m/s 749 mmHg 45%
    04:00 +26°C° 0 mm 2 m/s 749 mmHg 46%
    05:00 +27°C° 0 mm 2 m/s 749 mmHg 46%
    06:00 +27°C° 0 mm 1 m/s 749 mmHg 46%
    07:00 +29°C° 0 mm 2 m/s 749 mmHg 40%
    08:00 +31°C° 0 mm 3 m/s 749 mmHg 34%
    09:00 +34°C° 0 mm 4 m/s 749 mmHg 27%
    10:00 +35°C° 0 mm 4 m/s 748 mmHg 26%
    11:00 +36°C° 0 mm 5 m/s 748 mmHg 24%
    12:00 +37°C° 0 mm 5 m/s 747 mmHg 22%
    13:00 +37°C° 0 mm 5 m/s 747 mmHg 22%
    14:00 +39°C° 0 mm 5 m/s 746 mmHg 22%
    15:00 +39°C° 0 mm 6 m/s 746 mmHg 22%
    16:00 +37°C° 0 mm 5 m/s 746 mmHg 23%
    17:00 +37°C° 0 mm 5 m/s 746 mmHg 25%
    18:00 +36°C° 0 mm 4 m/s 746 mmHg 27%
    19:00 +34°C° 0 mm 4 m/s 746 mmHg 29%
    20:00 +33°C° 0 mm 5 m/s 747 mmHg 31%
    21:00 +30°C° 0 mm 5 m/s 748 mmHg 33%
    22:00 +29°C° 0 mm 4 m/s 748 mmHg 34%
    23:00 +28°C° 0 mm 4 m/s 748 mmHg 36%

    Poimâine, 21 Iunie, Vineri

    Timp Temperatura Precipitaţii Vânt Presiune Umiditate
    00:00 +27°C° 0 mm 3 m/s 748 mmHg 37%
    01:00 +27°C° 0 mm 3 m/s 748 mmHg 38%
    02:00 +26°C° 0 mm 3 m/s 748 mmHg 40%
    03:00 +26°C° 0 mm 3 m/s 748 mmHg 41%
    04:00 +26°C° 0 mm 3 m/s 748 mmHg 42%
    05:00 +27°C° 0 mm 3 m/s 748 mmHg 44%
    06:00 +27°C° 0 mm 3 m/s 748 mmHg 45%
    07:00 +29°C° 0.1 mm 4 m/s 748 mmHg 40%
    08:00 +30°C° 0.1 mm 5 m/s 748 mmHg 35%
    09:00 +33°C° 0.1 mm 6 m/s 749 mmHg 29%
    10:00 +34°C° 0.1 mm 6 m/s 748 mmHg 29%
    11:00 +35°C° 0.1 mm 5 m/s 748 mmHg 29%
    12:00 +35°C° 0.1 mm 5 m/s 748 mmHg 29%
    13:00 +36°C° 0.1 mm 6 m/s 748 mmHg 29%
    14:00 +36°C° 0.1 mm 6 m/s 748 mmHg 29%
    15:00 +36°C° 0.1 mm 6 m/s 748 mmHg 30%
    16:00 +35°C° 0 mm 6 m/s 748 mmHg 32%
    17:00 +35°C° 0 mm 5 m/s 748 mmHg 34%
    18:00 +34°C° 0 mm 5 m/s 748 mmHg 36%
    19:00 +33°C° 0 mm 4 m/s 749 mmHg 40%
    20:00 +32°C° 0 mm 4 m/s 749 mmHg 44%
    21:00 +29°C° 0 mm 3 m/s 750 mmHg 49%
    22:00 +29°C° 0 mm 3 m/s 750 mmHg 49%
    23:00 +28°C° 0 mm 3 m/s 750 mmHg 50%

    22 Iunie, Sâmbătă

    Timp Temperatura Precipitaţii Vânt Presiune Umiditate
    00:00 +28°C° 0 mm 2 m/s 750 mmHg 51%
    01:00 +27°C° 0 mm 2 m/s 750 mmHg 53%
    02:00 +27°C° 0 mm 2 m/s 750 mmHg 54%
    03:00 +26°C° 0 mm 2 m/s 750 mmHg 56%
    04:00 +27°C° 0 mm 2 m/s 750 mmHg 54%
    05:00 +27°C° 0 mm 1 m/s 750 mmHg 53%
    06:00 +28°C° 0 mm 1 m/s 751 mmHg 51%
    07:00 +30°C° 0 mm 2 m/s 751 mmHg 45%
    08:00 +32°C° 0 mm 2 m/s 751 mmHg 39%
    09:00 +34°C° 0 mm 3 m/s 751 mmHg 33%
    10:00 +36°C° 0 mm 4 m/s 751 mmHg 30%
    11:00 +37°C° 0 mm 5 m/s 751 mmHg 27%
    12:00 +39°C° 0 mm 5 m/s 750 mmHg 24%
    13:00 +39°C° 0 mm 5 m/s 750 mmHg 24%
    14:00 +39°C° 0 mm 6 m/s 750 mmHg 24%
    15:00 +40°C° 0 mm 6 m/s 749 mmHg 24%
    16:00 +39°C° 0 mm 6 m/s 749 mmHg 25%
    17:00 +39°C° 0 mm 5 m/s 749 mmHg 26%
    18:00 +37°C° 0 mm 5 m/s 749 mmHg 27%
    19:00 +35°C° 0 mm 5 m/s 750 mmHg 30%
    20:00 +34°C° 0 mm 4 m/s 750 mmHg 32%
    21:00 +32°C° 0 mm 4 m/s 751 mmHg 35%
    22:00 +30°C° 0 mm 3 m/s 751 mmHg 37%
    23:00 +29°C° 0 mm 3 m/s 751 mmHg 40%

    23 Iunie, Duminică

    Timp Temperatura Precipitaţii Vânt Presiune Umiditate
    00:00 +28°C° 0 mm 2 m/s 751 mmHg 43%
    01:00 +28°C° 0 mm 2 m/s 751 mmHg 46%
    02:00 +27°C° 0 mm 2 m/s 751 mmHg 49%
    03:00 +26°C° 0 mm 2 m/s 751 mmHg 52%
    04:00 +27°C° 0 mm 1 m/s 751 mmHg 51%
    05:00 +27°C° 0 mm 1 m/s 751 mmHg 51%
    06:00 +28°C° 0 mm 1 m/s 751 mmHg 50%
    07:00 +30°C° 0 mm 1 m/s 751 mmHg 44%
    08:00 +32°C° 0 mm 1 m/s 751 mmHg 38%
    09:00 +34°C° 0 mm 1 m/s 751 mmHg 32%
    10:00 +36°C° 0 mm 2 m/s 751 mmHg 28%
    11:00 +38°C° 0 mm 3 m/s 750 mmHg 25%
    12:00 +39°C° 0 mm 3 m/s 750 mmHg 21%
    13:00 +41°C° 0 mm 4 m/s 750 mmHg 21%
    14:00 +41°C° 0 mm 4 m/s 749 mmHg 21%
    15:00 +42°C° 0 mm 4 m/s 749 mmHg 21%
    16:00 +41°C° 0 mm 4 m/s 749 mmHg 22%
    17:00 +41°C° 0 mm 4 m/s 749 mmHg 24%
    18:00 +40°C° 0 mm 4 m/s 749 mmHg 25%
    19:00 +37°C° 0 mm 4 m/s 749 mmHg 28%
    20:00 +35°C° 0 mm 3 m/s 750 mmHg 31%
    21:00 +34°C° 0 mm 3 m/s 750 mmHg 33%
    22:00 +33°C° 0 mm 3 m/s 750 mmHg 35%
    23:00 +31°C° 0 mm 3 m/s 750 mmHg 36%

    24 Iunie, Luni

    Timp Temperatura Precipitaţii Vânt Presiune Umiditate
    00:00 +30°C° 0 mm 3 m/s 750 mmHg 38%
    01:00 +29°C° 0 mm 2 m/s 750 mmHg 40%
    02:00 +29°C° 0 mm 2 m/s 750 mmHg 42%
    03:00 +28°C° 0 mm 2 m/s 750 mmHg 44%
    04:00 +28°C° 0 mm 2 m/s 750 mmHg 44%
    05:00 +29°C° 0 mm 1 m/s 750 mmHg 44%
    06:00 +29°C° 0 mm 1 m/s 750 mmHg 44%
    07:00 +31°C° 0 mm 1 m/s 750 mmHg 39%
    08:00 +34°C° 0 mm 2 m/s 750 mmHg 35%
    09:00 +35°C° 0 mm 2 m/s 750 mmHg 31%
    10:00 +37°C° 0 mm 2 m/s 750 mmHg 27%
    11:00 +38°C° 0 mm 3 m/s 749 mmHg 24%
    12:00 +41°C° 0 mm 4 m/s 749 mmHg 21%
    13:00 +41°C° 0 mm 4 m/s 749 mmHg 22%
    14:00 +42°C° 0 mm 5 m/s 749 mmHg 22%
    15:00 +42°C° 0 mm 5 m/s 748 mmHg 23%
    16:00 +42°C° 0 mm 5 m/s 748 mmHg 24%
    17:00 +41°C° 0 mm 4 m/s 748 mmHg 25%
    18:00 +41°C° 0 mm 4 m/s 748 mmHg 26%
    19:00 +38°C° 0 mm 4 m/s 749 mmHg 27%
    20:00 +36°C° 0 mm 4 m/s 749 mmHg 28%
    21:00 +34°C° 0 mm 3 m/s 750 mmHg 28%
    22:00 +33°C° 0 mm 3 m/s 750 mmHg 29%
    23:00 +31°C° 0 mm 2 m/s 750 mmHg 29%
    Arată mai mult